Regional Weather Roundup
Issued by NWS

Home | Current Version | Previous Version | Graphics & Text | Print | Product List | Glossary On
Versions: 1 2 3 4 5 6 7 8 9 10 11 12 13 14 15 16 17 18 19 20 21 22 23 24 25 26 27 28 29 30 31 32 33 34 35 36 37 38 39 40 41 42 43 44 45 46 47 48 49 50
000
ASUS45 KTFX 311010
RWRMT
MONTANA REGIONAL WEATHER ROUNDUP
NATIONAL WEATHER SERVICE GREAT FALLS MT
400 AM MDT FRI JUL 31 2015

NOTE: "FAIR" INDICATES FEW OR NO CLOUDS BELOW 12000 FEET WITH NO
SIGNIFICANT WEATHER AND/OR OBSTRUCTIONS TO VISIBILITY.

MTZ001>007-043-311100-
WEST OF THE DIVIDE

CITY           SKY/WX    TMP DP  RH WIND       PRES   REMARKS
KALISPELL      SUNNY     47  40  76 CALM      30.17R
MISSOULA       CLEAR     57  41  55 CALM      30.23R
BUTTE          CLEAR     50  40  68 SE6       30.36R
MULLAN PASS    CLEAR     67  28  23 S5        30.36S
DEER LODGE       N/A     50  41  71 CALM      30.34S
EUREKA           N/A     54  37  54 CALM      30.17R
HAMILTON         N/A     63  39  42 S10       30.23S
LIBBY            N/A     52  37  58 CALM      30.18R
PLAINS           N/A     53  37  54 CALM      30.17S
RONAN            N/A     51  43  74 N3        30.21R
$$

MTZ008-052>055-311100-
SOUTHWEST MONTANA

CITY           SKY/WX    TMP DP  RH WIND       PRES   REMARKS
BOZEMAN        CLEAR     53  44  71 S6        30.28R
DILLON         CLEAR     55  41  59 S12       30.32R
THREE FORKS      N/A     51  31  46 CALM      30.23S
TWIN BRIDGES     N/A     52  41  66 CALM      30.26S
$$

MTZ009-010-012-014-046-048-049-054-311100-
EAST SLOPES AND CENTRAL MONTANA

CITY           SKY/WX    TMP DP  RH WIND       PRES   REMARKS
CUT BANK       CLEAR     50  39  66 NW6       30.20R
GREAT FALLS    CLEAR     58  41  53 SW12      30.19R
MALMSTROM AFB  CLEAR     58  45  61 W8        30.18S
HELENA         CLEAR     61  40  45 CALM      30.24S
CONRAD           N/A     48  46  93 N1        30.19R
$$

MTZ011-013-016-021-045-047-050-051-311100-
NORTH CENTRAL MONTANA

CITY           SKY/WX    TMP DP  RH WIND       PRES   REMARKS
HAVRE          CLEAR     55  49  80 NE3       30.13S
LEWISTOWN      CLEAR     57  42  57 SE6       30.24S
CHINOOK          N/A     57  52  82 E5        30.14S
$$

MTZ017>020-022>027-061-062-311100-
NORTHEAST MONTANA

CITY           SKY/WX    TMP DP  RH WIND       PRES   REMARKS
GLASGOW        CLEAR     57  50  77 E8        30.17R
JORDAN           N/A     53  45  74 CALM      30.18F
SIDNEY         CLEAR     54  46  76 CALM      30.17S
WOLF POINT     CLEAR     51  47  86 CALM      30.17S
MALTA            N/A     55  49  80 CALM      30.13R
PLENTYWOOD       N/A     61  48  63 CALM      30.16S
POPLAR           N/A     55  52  88 CALM      30.17S
SCOBEY           N/A     52  46  79 MISG      30.16R
$$

MTZ028>42-056>058-311100-
SOUTHCENTRAL AND SOUTHEAST MONTANA

CITY           SKY/WX    TMP DP  RH WIND       PRES   REMARKS
BAKER          PTCLDY    56  46  69 SW3       30.23S
BILLINGS       CLEAR     66  39  37 N5        30.23S
LIVINGSTON     CLEAR     51  42  71 W3        30.30R
MILES CITY     CLEAR     61  46  57 S8        30.20S
EKALAKA          N/A     58  41  53 SE3       30.22S
FORSYTH          N/A     63  46  55 CALM      30.19F
LAUREL           N/A     61  38  42 MISG      30.19F
ROUNDUP          N/A     61  38  42 MISG      30.13F
$$

REGIONAL REPORTS...DAKOTAS

CITY           SKY/WX    TMP DP  RH WIND       PRES   REMARKS
WILLISTON      CLEAR     56  50  80 S3        30.16S
MINOT          CLEAR     57  49  74 SW9       30.13S
DICKINSON      CLEAR     51  46  83 S9        30.18F
BEACH          FAIR      50  48  93 S7        30.21S
CROSBY         FAIR      48  48 100 NE3       30.16S
BISMARCK       CLEAR     54  50  86 W5        30.18S
GRAND FORKS    CLEAR     58  52  80 W7        30.03R
FARGO          CLEAR     57  52  83 W8        30.07R
BUFFALO SD       N/A     65  46  50 NW3       30.17S
RAPID CITY     CLEAR     59  48  67 NW7       30.22F
$$

REGIONAL REPORTS...WYOMING/IDAHO/WASHINGTON

CITY           SKY/WX    TMP DP  RH WIND       PRES   REMARKS
GILLETTE       CLEAR     60  41  49 VRB5      30.27F
SHERIDAN       CLEAR     53  43  68 CALM      30.25S
BUFFALO WY     CLEAR     63  35  35 W3        30.32S
CODY           CLEAR     63  34  34 S6        30.32R
YELLOWSTONE LA   N/A     39  34  82 CALM      30.54S
IDAHO FALLS    CLEAR     49  42  77 VRB3      30.29S
SALMON         CLEAR     52  45  76 CALM      30.28R
BOISE          PTCLDY    69  37  30 CALM      30.13R
SPOKANE        PTCLDY    68  33  27 NE5       30.10R
$$

REGIONAL REPORTS...ALBERTA

CITY           SKY/WX    TMP DP  RH WIND       PRES   REMARKS
EDMONTON       MOCLDY    59  50  72 S3        30.14S
CALGARY        CLEAR     57  41  54 SE6       30.21S
LETHBRIDGE     CLEAR     48  43  81 W3        30.15R
MEDICINE HAT   CLEAR     57  45  62 NE5       30.14S
WATERTON GATE    N/A     46  39  76 SW8         N/A
CARDSTON         N/A     61  36  39 SW12        N/A
MILK RIVER       N/A     52  43  71 W7          N/A
$$

REGIONAL REPORTS...SASKATCHEWAN

CITY           SKY/WX    TMP DP  RH WIND       PRES   REMARKS
SWIFT CURRENT  MOCLDY    57  48  72 E3        30.18F
REGINA         CLEAR     50  48  93 W7        30.15S
SASKATOON      PTCLDY    46  43  87 W7        30.14F
CYPRESS HILLS    N/A     59  43  55 SE5         N/A
VAL MARIE        N/A     48  46  93 NE5         N/A
ROCKGLEN         N/A     55  50  82 SW8         N/A
$$


USA.gov is the U.S. government's official web portal to all federal, state and local government web resources and services.